﻿測定場所 (Monitoring sites),日付 (Measurement date),時間 (Measurement time),線量率 最大値 (max) μGy/h,線量率 最小値 (min) μGy/h,線量率 平均値 (average) μGy/h,
調布 (Chofu),2017-01-08,23:01～24:00,0.0427,0.0365,0.0391,
調布 (Chofu),2017-01-08,22:01～23:00,0.0464,0.0382,0.0412,
調布 (Chofu),2017-01-08,21:01～22:00,0.0501,0.0421,0.0451,
調布 (Chofu),2017-01-08,20:01～21:00,0.0482,0.0410,0.0446,
調布 (Chofu),2017-01-08,19:01～20:00,0.0464,0.0392,0.0425,
調布 (Chofu),2017-01-08,18:01～19:00,0.0439,0.0357,0.0387,
調布 (Chofu),2017-01-08,17:01～18:00,0.0415,0.0358,0.0374,
調布 (Chofu),2017-01-08,16:01～17:00,0.0403,0.0352,0.0373,
調布 (Chofu),2017-01-08,15:01～16:00,0.0384,0.0347,0.0364,
調布 (Chofu),2017-01-08,14:01～15:00,0.0376,0.0283,0.0335,
調布 (Chofu),2017-01-08,13:01～14:00,0.0329,0.0282,0.0307,
調布 (Chofu),2017-01-08,12:01～13:00,0.0343,0.0291,0.0308,
調布 (Chofu),2017-01-08,11:01～12:00,0.0343,0.0289,0.0315,
調布 (Chofu),2017-01-08,10:01～11:00,0.0342,0.0298,0.0323,
調布 (Chofu),2017-01-08,09:01～10:00,0.0344,0.0303,0.0324,
調布 (Chofu),2017-01-08,08:01～09:00,0.0356,0.0304,0.0328,
調布 (Chofu),2017-01-08,07:01～08:00,0.0346,0.0307,0.0324,
調布 (Chofu),2017-01-08,06:01～07:00,0.0356,0.0307,0.0329,
調布 (Chofu),2017-01-08,05:01～06:00,0.0351,0.0306,0.0331,
調布 (Chofu),2017-01-08,04:01～05:00,0.0346,0.0307,0.0328,
調布 (Chofu),2017-01-08,03:01～04:00,0.0353,0.0308,0.0332,
調布 (Chofu),2017-01-08,02:01～03:00,0.0353,0.0306,0.0332,
調布 (Chofu),2017-01-08,01:01～02:00,0.0349,0.0310,0.0331,
調布 (Chofu),2017-01-08,00:01～01:00,0.0352,0.0310,0.0330,
調布 (Chofu),2017-01-07,23:01～24:00,0.0340,0.0305,0.0326,
調布 (Chofu),2017-01-07,22:01～23:00,0.0337,0.0299,0.0319,
調布 (Chofu),2017-01-07,21:01～22:00,0.0335,0.0297,0.0317,
調布 (Chofu),2017-01-07,20:01～21:00,0.0328,0.0285,0.0310,
調布 (Chofu),2017-01-07,19:01～20:00,0.0320,0.0280,0.0300,
調布 (Chofu),2017-01-07,18:01～19:00,0.0323,0.0278,0.0302,
調布 (Chofu),2017-01-07,17:01～18:00,0.0318,0.0281,0.0298,
調布 (Chofu),2017-01-07,16:01～17:00,0.0327,0.0286,0.0301,
調布 (Chofu),2017-01-07,15:01～16:00,0.0324,0.0279,0.0302,
調布 (Chofu),2017-01-07,14:01～15:00,0.0321,0.0287,0.0303,
調布 (Chofu),2017-01-07,13:01～14:00,0.0325,0.0280,0.0301,
調布 (Chofu),2017-01-07,12:01～13:00,0.0331,0.0278,0.0302,
調布 (Chofu),2017-01-07,11:01～12:00,0.0323,0.0285,0.0307,
調布 (Chofu),2017-01-07,10:01～11:00,0.0329,0.0296,0.0312,
調布 (Chofu),2017-01-07,09:01～10:00,0.0333,0.0292,0.0312,
調布 (Chofu),2017-01-07,08:01～09:00,0.0329,0.0295,0.0314,
調布 (Chofu),2017-01-07,07:01～08:00,0.0330,0.0294,0.0313,
調布 (Chofu),2017-01-07,06:01～07:00,0.0328,0.0295,0.0313,
調布 (Chofu),2017-01-07,05:01～06:00,0.0333,0.0290,0.0311,
調布 (Chofu),2017-01-07,04:01～05:00,0.0329,0.0296,0.0312,
調布 (Chofu),2017-01-07,03:01～04:00,0.0329,0.0284,0.0306,
調布 (Chofu),2017-01-07,02:01～03:00,0.0331,0.0282,0.0309,
調布 (Chofu),2017-01-07,01:01～02:00,0.0331,0.0282,0.0310,
調布 (Chofu),2017-01-07,00:01～01:00,0.0334,0.0298,0.0312,
調布 (Chofu),2017-01-06,23:01～24:00,0.0325,0.0291,0.0309,
調布 (Chofu),2017-01-06,22:01～23:00,0.0330,0.0289,0.0309,
調布 (Chofu),2017-01-06,21:01～22:00,0.0336,0.0283,0.0302,
調布 (Chofu),2017-01-06,20:01～21:00,0.0324,0.0286,0.0300,
調布 (Chofu),2017-01-06,19:01～20:00,0.0319,0.0285,0.0300,
調布 (Chofu),2017-01-06,18:01～19:00,0.0316,0.0274,0.0296,
調布 (Chofu),2017-01-06,17:01～18:00,0.0319,0.0274,0.0297,
調布 (Chofu),2017-01-06,16:01～17:00,0.0310,0.0275,0.0294,
調布 (Chofu),2017-01-06,15:01～16:00,0.0320,0.0274,0.0298,
調布 (Chofu),2017-01-06,14:01～15:00,0.0321,0.0285,0.0300,
調布 (Chofu),2017-01-06,13:01～14:00,0.0322,0.0277,0.0299,
調布 (Chofu),2017-01-06,12:01～13:00,0.0313,0.0280,0.0299,
調布 (Chofu),2017-01-06,11:01～12:00,0.0321,0.0278,0.0298,
調布 (Chofu),2017-01-06,10:01～11:00,0.0312,0.0273,0.0296,
調布 (Chofu),2017-01-06,09:01～10:00,0.0315,0.0280,0.0296,
調布 (Chofu),2017-01-06,08:01～09:00,0.0317,0.0274,0.0297,
調布 (Chofu),2017-01-06,07:01～08:00,0.0323,0.0284,0.0299,
調布 (Chofu),2017-01-06,06:01～07:00,0.0318,0.0274,0.0298,
調布 (Chofu),2017-01-06,05:01～06:00,0.0310,0.0279,0.0298,
調布 (Chofu),2017-01-06,04:01～05:00,0.0314,0.0276,0.0297,
調布 (Chofu),2017-01-06,03:01～04:00,0.0320,0.0275,0.0297,
調布 (Chofu),2017-01-06,02:01～03:00,0.0320,0.0278,0.0296,
調布 (Chofu),2017-01-06,01:01～02:00,0.0312,0.0281,0.0297,
調布 (Chofu),2017-01-06,00:01～01:00,0.0312,0.0276,0.0295,
調布 (Chofu),2017-01-05,23:01～24:00,0.0312,0.0275,0.0295,
調布 (Chofu),2017-01-05,22:01～23:00,0.0316,0.0278,0.0296,
調布 (Chofu),2017-01-05,21:01～22:00,0.0313,0.0273,0.0298,
調布 (Chofu),2017-01-05,20:01～21:00,0.0319,0.0286,0.0302,
調布 (Chofu),2017-01-05,19:01～20:00,0.0321,0.0270,0.0301,
調布 (Chofu),2017-01-05,18:01～19:00,0.0326,0.0288,0.0302,
調布 (Chofu),2017-01-05,17:01～18:00,0.0327,0.0285,0.0304,
調布 (Chofu),2017-01-05,16:01～17:00,0.0319,0.0280,0.0301,
調布 (Chofu),2017-01-05,15:01～16:00,0.0318,0.0280,0.0300,
調布 (Chofu),2017-01-05,14:01～15:00,0.0317,0.0283,0.0300,
調布 (Chofu),2017-01-05,13:01～14:00,0.0320,0.0274,0.0300,
調布 (Chofu),2017-01-05,12:01～13:00,0.0322,0.0280,0.0300,
調布 (Chofu),2017-01-05,11:01～12:00,0.0321,0.0282,0.0302,
調布 (Chofu),2017-01-05,10:01～11:00,0.0328,0.0269,0.0305,
調布 (Chofu),2017-01-05,09:01～10:00,0.0324,0.0288,0.0304,
調布 (Chofu),2017-01-05,08:01～09:00,0.0319,0.0284,0.0299,
調布 (Chofu),2017-01-05,07:01～08:00,0.0328,0.0285,0.0304,
調布 (Chofu),2017-01-05,06:01～07:00,0.0320,0.0282,0.0301,
調布 (Chofu),2017-01-05,05:01～06:00,0.0320,0.0285,0.0300,
調布 (Chofu),2017-01-05,04:01～05:00,0.0315,0.0275,0.0299,
調布 (Chofu),2017-01-05,03:01～04:00,0.0321,0.0276,0.0300,
調布 (Chofu),2017-01-05,02:01～03:00,0.0322,0.0285,0.0299,
調布 (Chofu),2017-01-05,01:01～02:00,0.0313,0.0270,0.0298,
調布 (Chofu),2017-01-05,00:01～01:00,0.0317,0.0281,0.0300,
調布 (Chofu),2017-01-04,23:01～24:00,0.0321,0.0279,0.0301,
調布 (Chofu),2017-01-04,22:01～23:00,0.0314,0.0273,0.0299,
調布 (Chofu),2017-01-04,21:01～22:00,0.0319,0.0275,0.0300,
調布 (Chofu),2017-01-04,20:01～21:00,0.0321,0.0279,0.0302,
調布 (Chofu),2017-01-04,19:01～20:00,0.0327,0.0280,0.0303,
調布 (Chofu),2017-01-04,18:01～19:00,0.0328,0.0282,0.0301,
調布 (Chofu),2017-01-04,17:01～18:00,0.0323,0.0284,0.0302,
調布 (Chofu),2017-01-04,16:01～17:00,0.0322,0.0275,0.0300,
調布 (Chofu),2017-01-04,15:01～16:00,0.0316,0.0282,0.0299,
調布 (Chofu),2017-01-04,14:01～15:00,0.0318,0.0279,0.0298,
調布 (Chofu),2017-01-04,13:01～14:00,0.0318,0.0279,0.0298,
調布 (Chofu),2017-01-04,12:01～13:00,0.0318,0.0279,0.0300,
調布 (Chofu),2017-01-04,11:01～12:00,0.0320,0.0280,0.0300,
調布 (Chofu),2017-01-04,10:01～11:00,0.0324,0.0282,0.0303,
調布 (Chofu),2017-01-04,09:01～10:00,0.0330,0.0282,0.0309,
調布 (Chofu),2017-01-04,08:01～09:00,0.0326,0.0294,0.0310,
調布 (Chofu),2017-01-04,07:01～08:00,0.0342,0.0294,0.0315,
調布 (Chofu),2017-01-04,06:01～07:00,0.0337,0.0302,0.0317,
調布 (Chofu),2017-01-04,05:01～06:00,0.0343,0.0296,0.0323,
調布 (Chofu),2017-01-04,04:01～05:00,0.0351,0.0293,0.0325,
調布 (Chofu),2017-01-04,03:01～04:00,0.0346,0.0305,0.0322,
調布 (Chofu),2017-01-04,02:01～03:00,0.0334,0.0309,0.0322,
調布 (Chofu),2017-01-04,01:01～02:00,0.0350,0.0295,0.0313,
調布 (Chofu),2017-01-04,00:01～01:00,0.0326,0.0283,0.0311,
調布 (Chofu),2017-01-03,23:01～24:00,0.0321,0.0280,0.0301,
調布 (Chofu),2017-01-03,22:01～23:00,0.0325,0.0281,0.0301,
調布 (Chofu),2017-01-03,21:01～22:00,0.0317,0.0278,0.0299,
調布 (Chofu),2017-01-03,20:01～21:00,0.0314,0.0286,0.0301,
調布 (Chofu),2017-01-03,19:01～20:00,0.0320,0.0286,0.0302,
調布 (Chofu),2017-01-03,18:01～19:00,0.0325,0.0278,0.0298,
調布 (Chofu),2017-01-03,17:01～18:00,0.0314,0.0274,0.0300,
調布 (Chofu),2017-01-03,16:01～17:00,0.0317,0.0275,0.0300,
調布 (Chofu),2017-01-03,15:01～16:00,0.0318,0.0284,0.0300,
調布 (Chofu),2017-01-03,14:01～15:00,0.0323,0.0274,0.0300,
調布 (Chofu),2017-01-03,13:01～14:00,0.0321,0.0281,0.0303,
調布 (Chofu),2017-01-03,12:01～13:00,0.0322,0.0279,0.0304,
調布 (Chofu),2017-01-03,11:01～12:00,0.0323,0.0288,0.0305,
調布 (Chofu),2017-01-03,10:01～11:00,0.0325,0.0289,0.0306,
調布 (Chofu),2017-01-03,09:01～10:00,0.0325,0.0285,0.0307,
調布 (Chofu),2017-01-03,08:01～09:00,0.0333,0.0291,0.0311,
調布 (Chofu),2017-01-03,07:01～08:00,0.0334,0.0291,0.0311,
調布 (Chofu),2017-01-03,06:01～07:00,0.0340,0.0294,0.0323,
調布 (Chofu),2017-01-03,05:01～06:00,0.0343,0.0306,0.0320,
調布 (Chofu),2017-01-03,04:01～05:00,0.0347,0.0297,0.0322,
調布 (Chofu),2017-01-03,03:01～04:00,0.0341,0.0300,0.0322,
調布 (Chofu),2017-01-03,02:01～03:00,0.0335,0.0300,0.0316,
調布 (Chofu),2017-01-03,01:01～02:00,0.0337,0.0302,0.0318,
調布 (Chofu),2017-01-03,00:01～01:00,0.0346,0.0297,0.0318,
調布 (Chofu),2017-01-02,23:01～24:00,0.0333,0.0300,0.0318,
調布 (Chofu),2017-01-02,22:01～23:00,0.0343,0.0295,0.0315,
調布 (Chofu),2017-01-02,21:01～22:00,0.0331,0.0293,0.0310,
調布 (Chofu),2017-01-02,20:01～21:00,0.0329,0.0286,0.0309,
調布 (Chofu),2017-01-02,19:01～20:00,0.0322,0.0289,0.0307,
調布 (Chofu),2017-01-02,18:01～19:00,0.0326,0.0277,0.0303,
調布 (Chofu),2017-01-02,17:01～18:00,0.0321,0.0282,0.0301,
調布 (Chofu),2017-01-02,16:01～17:00,0.0324,0.0282,0.0300,
調布 (Chofu),2017-01-02,15:01～16:00,0.0324,0.0277,0.0302,
調布 (Chofu),2017-01-02,14:01～15:00,0.0329,0.0280,0.0304,
調布 (Chofu),2017-01-02,13:01～14:00,0.0326,0.0285,0.0303,
調布 (Chofu),2017-01-02,12:01～13:00,0.0326,0.0284,0.0308,
調布 (Chofu),2017-01-02,11:01～12:00,0.0330,0.0292,0.0309,
調布 (Chofu),2017-01-02,10:01～11:00,0.0330,0.0297,0.0316,
調布 (Chofu),2017-01-02,09:01～10:00,0.0336,0.0300,0.0318,
調布 (Chofu),2017-01-02,08:01～09:00,0.0336,0.0290,0.0317,
調布 (Chofu),2017-01-02,07:01～08:00,0.0341,0.0305,0.0324,
調布 (Chofu),2017-01-02,06:01～07:00,0.0349,0.0307,0.0322,
調布 (Chofu),2017-01-02,05:01～06:00,0.0340,0.0300,0.0315,
調布 (Chofu),2017-01-02,04:01～05:00,0.0333,0.0294,0.0315,
調布 (Chofu),2017-01-02,03:01～04:00,0.0334,0.0283,0.0311,
調布 (Chofu),2017-01-02,02:01～03:00,0.0337,0.0286,0.0309,
調布 (Chofu),2017-01-02,01:01～02:00,0.0333,0.0293,0.0311,
調布 (Chofu),2017-01-02,00:01～01:00,0.0331,0.0291,0.0309,
